Tracking 19800 objects as of 24-Jul-2019
HD Live streaming from Space Station
objects crossing your sky now

FENGYUN 1C DEB

Track FENGYUN 1C DEB now!
10-day predictions


NORAD ID: 31906
Int'l Code: 1999-025CLH
Perigee: 830.6 km
Apogee: 918.5 km
Inclination: 98.6 °
Period: 102.3 minutes
Semi major axis: 7245 km
RCS: 0.0067 m2 (small)
Launch date: May 10, 1999
Source: People's Republic of China (PRC)
Launch site: Taiyaun Space Center, China (TSC)

Note: This is SATELLITE DEBRIS
aabbcc
Your satellite tracking list
Your tracking list is empty




NASA's NSSDC Master Catalog

Two Line Element Set (TLE):
1 31906U 99025CLH 19204.46896451 +.00000306 +00000-0 +20223-3 0  9994
2 31906 098.5861 027.6773 0060625 295.3663 129.0926 14.07660332621755
Source of the keplerian elements: AFSPC